Flag for U.S.A. Weather past 2 weeks in Providence, Rhode Island, U.S.A.

Now
26 °F

Broken clouds.


Feels Like: 17 °F
Forecast: 26 / 42 °F
Wind: 9 mph from North

Location: Green State Airport

Current Time: Mar 29, 2015 at 8:55:11 AM

Latest Report: Mar 29, 2015 at 7:51 AM


Visibility: 10 mi

Pressure: 30.18 "Hg

Humidity: 55%

Dew point: 12 °F

Location of ProvidenceLocation

Historic Weather in Providence — Graph

°F

Providence temperature yesterday

Maximum temperature yesterday: 39 °F (at 12:51 AM)
Minimum temperature yesterday: 31 °F (at 11:58 PM)
Average temperature yesterday: 35 °F

Past Weeks' High & Low Weather Summary

 TemperatureHumidityPressure
High57 °F (Mar 26, 5:55 PM)100% (Mar 14, 2:51 PM)30.42 "Hg (Mar 14, 2:51 PM)
Low17 °F (Mar 23, 5:51 AM)17% (Mar 19, 2:51 PM)29.41 "Hg (Mar 17, 3:51 PM)
Average34 °F61%29.97 "Hg
* Reported Mar 14 6:51 AM — Mar 29 6:51 AM, Providence, Weather by CustomWeather, © 2015

Note: Actual official high and low records may vary slightly from our data, if they occured in-between our weather recording intervals... More about our weather records

Advertising

Providence weather history for previous 24 hours

 ConditionsComfort  
Time TempWeatherWind HumidityBarometerVisibility
6:51 AM
Sun, Mar 29
25 °FPartly cloudy.9 mph58%30.15 "Hg10 mi
5:51 AM24 °FPassing clouds.10 mph57%30.12 "Hg10 mi
4:51 AM25 °FMostly cloudy.9 mph58%30.10 "Hg10 mi
3:51 AM26 °FMostly cloudy.9 mph63%30.08 "Hg10 mi
2:51 AM27 °FOvercast.13 mph66%30.08 "Hg10 mi
1:51 AM27 °FLight snow. Overcast.13 mph78%30.06 "Hg3 mi
12:51 AM29 °FOvercast.8 mph82%30.04 "Hg10 mi
11:58 PM
Sat, Mar 28
31 °FLight snow. Ice fog.14 mph85%30.03 "Hg6 mi
10:51 PM32 °FLight snow. Ice fog.8 mph92%30.01 "Hg1 mi
9:51 PM32 °FLight snow. Ice fog.7 mph92%29.99 "Hg1 mi
8:51 PM33 °FLight snow. Fog.No wind92%29.96 "Hg1 mi
7:51 PM33 °FLight snow. Fog.6 mph92%29.91 "Hg1 mi
6:51 PM34 °FLight snow. Fog.8 mph85%29.88 "Hg2 mi
5:51 PM34 °FLight snow. Fog.14 mph88%29.84 "Hg1 mi
5:01 PM35 °FLight snow. Fog.13 mph85%29.80 "Hg2 mi
3:51 PM35 °FLight snow. Fog.13 mph88%29.77 "Hg1 mi
2:51 PM36 °FLight rain. Fog.13 mph85%29.75 "Hg2 mi
1:51 PM35 °FLight rain. Fog.15 mph88%29.74 "Hg1 mi
12:58 PM35 °FLight rain. Fog.16 mph88%29.74 "Hg2 mi
11:51 AM35 °FLight rain. Fog.17 mph88%29.74 "Hg3 mi
10:58 AM35 °FLight rain. Fog.15 mph88%29.75 "Hg4 mi
9:51 AM36 °FLight rain. Overcast.14 mph89%29.75 "Hg7 mi
8:51 AM35 °FLight rain. Fog.13 mph92%29.71 "Hg5 mi
Weather by CustomWeather, © 2015

See weather overviewHow to use our weather pages